GSAT0101 (GALILEO-PFM) 1 37846U 11060A 26254.66300968 -.00000103 00000+0 00000+0 0 9996 2 37846 56.9594 339.4167 0000252 59.2386 300.8114 1.70475619092595 GSAT0102 (GALILEO-FM2) 1 37847U 11060B 26246.42885211 -.00000084 00000+0 00000+0 0 9999 2 37847 56.9635 339.6410 0001594 329.3167 62.9507 1.70475714092467 GSAT0103 (GALILEO-FM3) 1 38857U 12055A 26254.70411981 .00000015 00000+0 00000+0 0 9998 2 38857 55.8600 99.1697 0002047 315.2788 44.7968 1.70473471086483 GSAT0201 (GALILEO 5) 1 40128U 14050A 26255.19351443 -.00000034 00000+0 00000+0 0 9991 2 40128 48.7843 269.8594 1686337 182.7547 176.1917 1.85519597079932 GSAT0202 (GALILEO 6) 1 40129U 14050B 26254.37077936 -.00000029 00000+0 00000+0 0 9997 2 40129 48.8022 268.9798 1687741 183.4320 175.2535 1.85520202082087 GSAT0203 (GALILEO 7) 1 40544U 15017A 26252.09412080 -.00000100 00000+0 00000+0 0 9992 2 40544 56.7527 339.3092 0004460 251.6359 108.3566 1.70476378070633 GSAT0204 (GALILEO 8) 1 40545U 15017B 26254.69651230 -.00000103 00000+0 00000+0 0 9996 2 40545 56.7582 339.2572 0004836 241.3315 118.6677 1.70475843033724 GSAT0206 (GALILEO 10) 1 40890U 15045B 26254.09842668 -.00000002 00000+0 00000+0 0 9999 2 40890 54.9256 219.2330 0002540 349.0399 10.9008 1.70473136068501 GSAT0209 (GALILEO 12) 1 41174U 15079A 26253.09398405 .00000021 00000+0 00000+0 0 9996 2 41174 55.8813 98.9312 0003699 16.5279 343.5809 1.70473608066222 GSAT0208 (GALILEO 11) 1 41175U 15079B 26253.90103922 .00000018 00000+0 00000+0 0 9991 2 41175 55.8790 98.9063 0005171 45.8921 314.2454 1.70473654066655 GSAT0211 (GALILEO 14) 1 41549U 16030A 26254.61074273 -.00000001 00000+0 00000+0 0 9992 2 41549 55.0761 219.3188 0003775 332.6530 27.2735 1.70473146064149 GSAT0210 (GALILEO 13) 1 41550U 16030B 26254.28128270 -.00000002 00000+0 00000+0 0 9995 2 41550 55.0753 219.3259 0004075 253.3502 106.5514 1.70473599064130 GSAT0207 (GALILEO 15) 1 41859U 16069A 26254.56034713 .00000015 00000+0 00000+0 0 9991 2 41859 55.5533 98.6945 0003037 359.7632 0.3287 1.70473750060879 GSAT0212 (GALILEO 16) 1 41860U 16069B 26253.24052514 .00000019 00000+0 00000+0 0 9990 2 41860 55.5502 98.7259 0003965 39.3601 320.7650 1.70473888061105 GSAT0213 (GALILEO 17) 1 41861U 16069C 26251.84779498 .00000021 00000+0 00000+0 0 9995 2 41861 55.5520 98.7726 0002168 331.3762 28.7083 1.70474341060943 GSAT0214 (GALILEO 18) 1 41862U 16069D 26253.16735567 .00000020 00000+0 00000+0 0 9991 2 41862 55.5429 98.7287 0002373 358.3065 1.7890 1.70474047061094 GSAT0215 (GALILEO 19) 1 43055U 17079A 26254.24294115 -.00000002 00000+0 00000+0 0 9999 2 43055 55.0541 219.1395 0003346 281.3163 78.5923 1.70473895054455 GSAT0216 (GALILEO 20) 1 43056U 17079B 26254.53404181 -.00000001 00000+0 00000+0 0 9997 2 43056 55.0545 219.1316 0004612 288.6464 71.2497 1.70473999054477 GSAT0217 (GALILEO 21) 1 43057U 17079C 26254.16828368 -.00000002 00000+0 00000+0 0 9995 2 43057 55.0524 219.1392 0004080 302.5197 57.3871 1.70473968054452 GSAT0218 (GALILEO 22) 1 43058U 17079D 26254.38836198 -.00000002 00000+0 00000+0 0 9990 2 43058 55.0528 219.1309 0005052 284.2678 75.6223 1.70473958054481 GSAT0221 (GALILEO 25) 1 43564U 18060A 26253.11958898 -.00000101 00000+0 00000+0 0 9995 2 43564 57.1351 339.4875 0004384 269.9725 90.0208 1.70476218050611 GSAT0222 (GALILEO 26) 1 43565U 18060B 26249.23326963 -.00000093 00000+0 00000+0 0 9996 2 43565 57.1403 339.5966 0004580 241.9595 118.0319 1.70475955050593 GSAT0219 (GALILEO 23) 1 43566U 18060C 26242.41507176 -.00000076 00000+0 00000+0 0 9998 2 43566 57.1426 339.7826 0003515 273.9182 86.0846 1.70476242050454 GSAT0220 (GALILEO 24) 1 43567U 18060D 26253.19462196 -.00000101 00000+0 00000+0 0 9997 2 43567 57.1370 339.4905 0003678 268.4040 91.5976 1.70475942050620 GSAT0223 (GALILEO 27) 1 49809U 21116A 26251.38578007 -.00000099 00000+0 00000+0 0 9992 2 49809 57.1270 339.4281 0003955 220.3982 200.3753 1.70476049029607 GSAT0224 (GALILEO 28) 1 49810U 21116B 26255.20646131 -.00000103 00000+0 00000+0 0 9999 2 49810 57.1262 339.3236 0003182 214.6681 143.5941 1.70476350029683 GSAT0225 (GALILEO 29) 1 59598U 24079A 26254.92947344 .00000012 00000+0 00000+0 0 9990 2 59598 55.1754 98.6543 0001346 119.7816 61.6279 1.70474149014796 GSAT0227 (GALILEO 30) 1 59600U 24079C 26254.23092435 .00000015 00000+0 00000+0 0 9993 2 59600 55.1701 98.6721 0004144 92.2332 267.9075 1.70474135014832 GSAT0232 (GALILEO 32) 1 61182U 24167A 26255.05124064 .00000001 00000+0 00000+0 0 9999 2 61182 55.1656 218.9315 0005621 235.9553 123.2359 1.70473627012356 GSAT0226 (GALILEO 31) 1 61183U 24167B 26254.31972794 -.00000002 00000+0 00000+0 0 9991 2 61183 55.1647 218.9588 0002511 247.1445 114.4318 1.70473586012327 GSAT0233 (GALILEO 33) 1 67160U 25302A 26254.16480075 .00000014 00000+0 00000+0 0 9995 2 67160 54.3907 99.6797 0002812 137.8820 225.2404 1.70474110004591 GSAT0234 (GALILEO 34) 1 67162U 25302C 26254.15878367 .00000014 00000+0 00000+0 0 9991 2 67162 54.3927 99.6790 0000510 35.7866 143.7414 1.70474090004645